This is the latest recevied weather packets stored in our database for station/object ALAKES. If no packets are shown the sender has not sent any weather packets the latest 10 day(s).
| Time | Temp. | Humidity | Pressure | Rain* | Wind** | Luminosity | Snow |
|---|---|---|---|---|---|---|---|
| 1787372678 | 18.33° C | 32% | - | 0 mm | - | - | - |
| 1787372048 | 18.33° C | 32% | - | 0 mm | - | - | - |
| 1787371429 | 18.33° C | 32% | - | 0 mm | - | - | - |
| 1787370807 | 18.33° C | 34% | - | 0 mm | - | - | - |
| 1787370181 | 17.78° C | 34% | - | 0 mm | - | - | - |
| 1787369553 | 17.78° C | 31% | - | 0 mm | - | - | - |
| 1787368927 | 17.22° C | 34% | - | 0 mm | - | - | - |
| 1787368296 | 17.22° C | 34% | - | 0 mm | - | - | - |
| 1787367676 | 17.78° C | 33% | - | 0 mm | - | - | - |
| 1787367056 | 17.78° C | 32% | - | 0 mm | - | - | - |
| 1787366436 | 17.78° C | 32% | - | 0 mm | - | - | - |
| 1787365821 | 18.33° C | 33% | - | 0 mm | - | - | - |
| 1787365185 | 18.33° C | 31% | - | 0 mm | - | - | - |
| 1787364567 | 18.89° C | 30% | - | 0 mm | - | - | - |
| 1787363933 | 20° C | 29% | - | 0 mm | - | - | - |
| 1787363293 | 20° C | 29% | - | 0 mm | - | - | - |
| 1787362639 | 20.56° C | 28% | - | 0 mm | - | - | - |
| 1787362011 | 20° C | 27% | - | 0 mm | - | - | - |
| 1787361344 | 20.56° C | 26% | - | 0 mm | - | - | - |
| 1787360660 | 20.56° C | 26% | - | 0 mm | - | - | - |
| 1787360003 | 20.56° C | 25% | - | 0 mm | - | - | - |
| 1787359361 | 21.11° C | 25% | - | 0 mm | - | - | - |
| 1787358730 | 21.67° C | 23% | - | 0 mm | - | - | - |
| 1787358098 | 22.22° C | 22% | - | 0 mm | - | - | - |
| 1787357464 | 22.78° C | 21% | - | 0 mm | - | - | - |
* Rain latest 24 hours (hover to see other rain measurements)
** Current wind speed in m/s (hover to see current wind gust speed)